Tracking 18957 objects as of 23-Jan-2018
HD Live streaming from Space Station
objects crossing your sky now

FENGYUN 1C DEB

Track FENGYUN 1C DEB now!
10-day predictions


NORAD ID: 37903
Int'l Code: 1999-025ENC
Perigee: 703.9 km
Apogee: 1,200.1 km
Inclination: 98.2 °
Period: 103.9 minutes
Semi major axis: 7322 km
RCS: 0.0009 m2 (small)
Launch date: May 10, 1999
Source: People's Republic of China (PRC)
Launch site: Taiyaun Space Center, China (TSC)

Note: This is SATELLITE DEBRIS
aabbcc
Your satellite tracking list
Your tracking list is empty




NASA's NSSDC Master Catalog

Two Line Element Set (TLE):
1 37903U 99025ENC 18022.76018218  .00001238  00000-0  71277-3 0  9994
2 37903  98.1689 213.3200 0338771 109.6813 254.1227 13.85382116509604
Source of the keplerian elements: AFSPC